Volver al catálogo

CZ-6A DEB

ActivoPO
NORAD 54415·DEBRIS·🇨🇳 China

Lanzado Nov 11, 2022 desde Taiyuan Satellite Launch Center

Loading…

Próximos Pases (próximas 24 horas)

TLE

ActualizadoSource: Space-Track

Época: Sep 14, 2026, 05:37 UTC

1 54415U 22151EP  26257.23424059  .00001283  00000-0  10426-2 0  9990
2 54415  99.0067 177.7867 0352054 327.9261  30.0887 13.66501225190999

Sigue CZ-6A DEB en tiempo real con AllMySat

Download on the App Store